Showing default

CYGFM04, 41885

Orbit data source: Space-Track

CYGFM04, 41885 is an American payload satellite in LEO that was launched on Thu, 15 Dec 2016 UTC via a PEGASUS XL launch vehicle from the Pegasus Launch, Eastern Range Air Space (ERAS). Payload-class satellites include a variety of spacecraft equipped with specific instruments for various scientific and technological missions. These include communications satellites like Starlink; space stations such as the ISS; scientific satellites like the Hubble; Earth observation satellites from companies like Planet Labs, Umbra, and HawkEye 360; GPS; miniature CubeSats for education and research; and military/defense satellites.

Loading next visibility...
Identifier
41885, 2016-078B
Orbit
LEO
Last TLE update
5 hours ago
Origin
Manufacturer
SST-US
Mission
Extended mission Civil Science
Bus & Motor
CYGNSS, Unknown motor
Mass
29 kg wet, 29 kg dry
Launch date (UTC)
2016-12-15 (9 years ago)
Launch vehicle
PEGASUS XL
Launch site
Pegasus Launch, Eastern Range Air Space (ERAS)
Object type
Payload
Rocket body
Debris
Shape & HBR
Half Hex Cyl + 2 Pan, 1.7 m
Radar Cross Section
0.450 m², Medium (>0.1 m² and < 1m²)

Expand to show TLE details & history

TLE from 5 hours ago
0 CYGFM04
1 41885U 16078B   25182.87347259  .00011339  00000-0  24973-3 0  9996
2 41885  34.9371  10.0429 0007593 113.9863 246.1652 15.43067392474726
Epoch: 2025-07-01T20:57Z
TLE epoch observation values (Epoch: 2025-07-01T20:57:48.031Z)
Latitude
-0.00005°
Longitude
135.43003°
Altitude
438.047 km
Speed
7.65 km/s
True Right ascension
00h 40m 10s
True Declination
0° 00' 00"
Sunlit
Object was in daylight at epoch
Visualization orbit readout
Latitude
27.97105°
Longitude
-176.78183°
Altitude
433.931 km
Speed
7.658 km/s
Apparent Right ascension
02h 49m 13s
Apparent Declination
-4° 53' 55"
Sunlit
Object is in daylight
Visualization observer readout
Local Sidereal Time
13:32:24
Azimuth
328.661° NNW
Elevation
-50.936°
Doppler factor
1
Orbital elements
Apogee altitude
445.528 km
Perigee altitude
435.174 km
Semi-major axis
6,818.488 km
Eccentricity
0.00076
Inclination
34.9371°
RAAN
10.0429°
Arg. of periapsis
113.9863°
True anomaly
Unknown
Mean anomaly
246.1652°
Eccentric anomaly
Unknown
Mean motion
3.85488 °/min
Orbital period
93.39 mins
BSTAR
0.00024973
Loading maneuver chart data...
Loading SW <> Apogee altitude chart data...
Loading historical data...
Loading historical data...
Loading historical data...
Loading historical data...
Loading historical data...
Loading historical data...
Loading historical data...

CYGFM04 Visibility forecast

Observer location: undefined°, undefined°

Span
Click to sort rows by Start time (UTC) header in descending order
Start Az.
Max El. time (UTC)
Max El. Az.
Max El.
End time (UTC)
End Az.
4 mins2025-07-02 17:27:25.161Z213.726° SW2025-07-02 17:29:25.161Z154.229° SSE25.227°2025-07-02 17:31:25.161Z113.495° SE
4 mins2025-07-02 19:05:25.161Z234.545° WSW2025-07-02 19:07:25.161Z171.33° S28.041°2025-07-02 19:09:25.161Z126.364° SE
|